This is the latest recevied weather packets stored in our database for station/object N9WHM. If no packets are shown the sender has not sent any weather packets the latest 10 day(s).
| Time | Temp. | Humidity | Pressure | Rain* | Wind** | Luminosity | Snow |
|---|---|---|---|---|---|---|---|
| 1777562079 | 8.33° C | 73% | 1019.8 hPa | 0 mm | - | 286 W/m² | - |
| 1777561776 | 7.78° C | 72% | 1019.7 hPa | 0 mm | - | 249 W/m² | - |
| 1777561472 | 7.78° C | 74% | 1019.6 hPa | 0 mm | - | 283 W/m² | - |
| 1777561167 | 7.78° C | 74% | 1019.7 hPa | 0 mm | - | 264 W/m² | - |
| 1777560862 | 7.22° C | 73% | 1019.6 hPa | 0 mm | - | 217 W/m² | - |
| 1777560560 | 7.78° C | 72% | 1019.4 hPa | 0 mm | - | 262 W/m² | - |
| 1777560258 | 7.78° C | 74% | 1019.4 hPa | 0 mm | - | 217 W/m² | - |
| 1777559955 | 7.78° C | 74% | 1019.3 hPa | 0 mm | - | 202 W/m² | - |
| 1777559650 | 7.78° C | 73% | 1019.5 hPa | 0 mm | - | 288 W/m² | - |
| 1777559348 | 7.78° C | 72% | 1019.5 hPa | 0 mm | - | 299 W/m² | - |
| 1777559044 | 7.22° C | 72% | 1019.2 hPa | 0 mm | - | 201 W/m² | - |
| 1777558739 | 7.22° C | 73% | 1019.1 hPa | 0 mm | - | 180 W/m² | - |
| 1777558435 | 6.67° C | 73% | 1018.9 hPa | 0 mm | - | 134 W/m² | - |
| 1777558131 | 6.67° C | 75% | 1018.9 hPa | 0 mm | - | 108 W/m² | - |
| 1777557828 | 6.67° C | 74% | 1019 hPa | 0 mm | - | 85 W/m² | - |
| 1777557525 | 6.67° C | 74% | 1019.1 hPa | 0 mm | - | 75 W/m² | - |
| 1777557221 | 6.67° C | 73% | 1019.1 hPa | 0 mm | - | 65 W/m² | - |
| 1777556917 | 6.67° C | 73% | 1019 hPa | 0 mm | - | 77 W/m² | - |
| 1777556612 | 6.67° C | 72% | 1018.9 hPa | 0 mm | - | 52 W/m² | - |
| 1777556307 | 7.22° C | 73% | 1019.1 hPa | 0 mm | - | 73 W/m² | - |
| 1777556003 | 7.78° C | 76% | 1018.9 hPa | 0 mm | - | 76 W/m² | - |
| 1777555699 | 7.22° C | 76% | 1018.6 hPa | 0 mm | - | 107 W/m² | - |
| 1777555395 | 7.22° C | 76% | 1018.4 hPa | 0 mm | - | 89 W/m² | - |
| 1777555091 | 7.22° C | 74% | 1018.5 hPa | 0 mm | - | 64 W/m² | - |
| 1777554789 | 7.78° C | 74% | 1018.2 hPa | 0 mm | - | 99 W/m² | - |
* Rain latest hour (hover to see other rain measurements)
** Current wind speed in m/s (hover to see current wind gust speed)